Volver al catálogo

FENGYUN 1C DEB

ActivoLEO
NORAD 31628·DEBRIS·🇨🇳 China

Lanzado May 10, 1999 desde Taiyuan Satellite Launch Center

Loading…

Próximos Pases (próximas 24 horas)

TLE

ActualizadoSource: Space-Track

Época: Sep 12, 2026, 18:40 UTC

1 31628U 99025CAJ 26255.77825356  .00001521  00000-0  11958-2 0  9993
2 31628 102.2657 200.4713 0166820 285.8602  72.4212 13.88032612971005

Sigue FENGYUN 1C DEB en tiempo real con AllMySat

Download on the App Store